Wind_Speed
30 30 29 26 23 24 28 28 25 22 20 19 17 16 16 16 17 17 18 17 16 17 17 17 18 18 19 21 22 23 25 25 26 25 25 24 23 22 21 21 21 21 22 24 26 27 27 27 25 24 23 22 22 23 24 25 25 25 25 26 26 26 26 27 27 28 29 29 30 30 31 33 33 34
29 29 30 29 28 27 28 28 27 24 22 20 19 18 18 18 18 20 20 19 18 18 19 18 18 17 18 19 20 22 23 24 26 27 26 25 24 23 23 24 25 26 28 30 32 32 32 31 28 27 25 24 23 23 24 25 26 26 26 27 27 27 27 28 28 28 29 30 31 31 32 32 33 34
27 28 28 30 30 30 30 30 29 27 25 23 20 18 18 18 20 21 22 22 21 20 21 19 18 17 17 18 19 20 21 22 23 25 26 26 25 25 26 27 29 31 32 34 36 37 36 35 33 31 30 28 27 27 26 27 27 27 27 27 27 27 28 29 29 29 30 31 32 33 33 34 34 35
26 27 28 29 30 31 31 31 31 30 28 26 23 21 20 20 21 23 24 24 23 23 22 21 19 18 18 18 19 20 21 22 23 24 26 27 27 28 29 30 32 33 34 36 37 37 37 37 35 34 33 33 32 32 31 30 29 29 29 29 28 29 29 30 31 32 32 33 34 34 35 35 35 36
24 26 28 29 31 32 31 31 32 32 31 29 27 25 24 23 23 24 25 26 26 25 24 23 22 20 20 20 20 21 22 23 23 24 26 27 28 29 29 31 32 32 33 34 34 35 35 35 35 35 35 36 36 35 35 34 33 33 32 31 31 32 32 33 33 34 34 35 35 36 36 37 37 37
24 25 27 28 30 31 31 31 32 32 32 32 31 29 28 27 26 26 26 27 27 27 26 25 24 23 22 22 22 22 22 23 23 23 25 26 27 27 28 29 30 31 32 33 34 35 36 37 38 38 39 39 39 38 37 37 37 36 35 35 35 36 36 36 36 36 36 36 36 37 37 37 38 38
25 25 26 27 28 29 30 30 31 32 32 33 32 32 31 31 30 29 28 28 28 28 28 27 27 26 25 25 25 24 24 23 23 23 24 25 26 26 27 28 30 32 34 36 38 40 40 40 40 40 40 40 41 41 41 40 40 39 38 38 38 38 38 38 38 38 37 37 37 37 38 38 38 39
25 25 25 27 27 28 30 31 31 31 32 32 33 33 32 32 31 31 30 28 26 26 28 29 29 29 28 27 27 27 26 25 25 25 25 26 27 28 29 29 30 32 35 37 39 41 42 42 42 42 41 41 40 41 41 41 41 41 41 40 40 40 41 41 40 40 39 39 39 38 38 38 39 39
23 23 24 26 27 28 30 31 32 32 33 33 34 34 33 32 32 32 31 29 27 27 30 31 31 31 30 30 30 30 29 28 28 29 30 30 30 31 31 32 33 35 37 39 41 42 41 41 41 41 41 41 41 41 41 41 41 41 41 41 41 42 42 42 41 41 41 40 40 40 40 39 39 39
22 22 24 25 26 28 30 31 33 34 34 34 35 35 35 35 34 33 33 32 30 31 32 33 33 33 33 32 33 34 33 31 30 31 32 34 35 35 35 36 38 40 43 45 46 46 44 42 41 41 41 42 42 42 43 43 43 42 41 41 41 42 42 42 42 42 41 41 41 41 41 41 41 40
22 22 24 25 26 28 30 31 33 34 36 36 36 37 38 37 35 34 33 32 31 31 33 34 35 35 35 35 35 37 37 36 35 35 35 36 37 38 38 39 41 44 47 49 49 49 47 44 43 43 43 43 44 44 45 46 45 44 43 42 42 42 42 42 42 42 42 42 42 42 42 42 42 42
24 23 24 26 27 29 31 31 33 35 37 37 38 39 39 38 36 33 32 31 32 33 34 34 35 35 35 36 37 38 40 40 40 40 39 38 38 38 39 40 42 46 50 51 50 49 47 45 45 45 45 46 46 47 47 47 46 46 46 46 45 45 44 43 43 43 43 43 43 44 44 45 45 45
27 25 26 27 29 31 32 33 34 36 37 39 39 40 40 39 36 33 32 33 34 35 36 36 36 36 36 38 39 40 41 43 44 44 42 39 38 39 39 41 44 48 50 50 49 47 46 46 47 47 48 49 49 50 49 48 47 46 47 48 49 49 48 48 47 47 46 46 46 46 47 47 47 47
28 27 28 29 31 32 33 34 35 37 38 39 40 41 41 39 36 34 34 36 37 38 39 39 39 39 39 40 42 42 43 45 46 46 42 38 38 40 41 43 46 49 50 48 46 45 45 47 48 49 50 51 52 52 50 49 48 48 49 49 50 50 50 50 50 49 49 48 48 48 48 48 48 48
29 29 30 31 32 33 33 34 36 37 38 39 40 42 41 38 35 35 36 38 40 41 41 40 41 41 41 41 42 43 44 46 46 44 41 39 41 43 44 45 46 47 48 47 45 44 45 47 49 50 51 52 52 51 49 49 50 50 50 49 49 49 49 49 49 49 48 48 48 48 47 48 48 48
30 30 31 32 32 33 33 34 35 37 38 39 40 41 40 37 36 37 38 41 43 43 43 43 42 41 41 41 43 45 46 47 47 44 42 43 44 45 46 47 46 45 45 46 46 45 46 48 50 51 51 51 50 49 48 49 49 49 48 47 46 47 47 47 47 47 47 47 48 48 48 48 48 48
32 32 32 32 31 31 32 32 34 36 37 39 41 41 40 38 38 39 40 43 44 45 44 42 39 40 43 43 44 46 48 48 47 45 45 46 47 48 49 49 46 44 45 47 48 48 48 49 51 52 50 50 49 47 47 47 46 46 45 45 45 45 46 46 46 47 47 47 48 49 49 49 49 49
34 34 33 32 31 31 32 33 35 36 36 38 40 41 40 39 39 39 40 42 43 43 41 39 39 42 46 47 47 48 49 48 46 45 47 49 51 51 51 48 46 45 47 49 51 52 51 51 52 51 49 48 47 45 45 44 44 43 43 43 43 43 43 43 44 45 45 46 47 48 48 49 49 50
36 35 35 34 33 33 34 36 37 37 36 37 39 40 40 39 38 38 39 41 42 40 40 42 44 46 48 49 49 49 48 48 47 48 51 53 54 53 50 47 46 48 50 53 55 55 53 52 51 49 47 45 43 42 42 42 42 41 41 41 41 40 40 41 41 42 43 44 45 46 47 48 49 50
37 36 36 35 35 35 36 38 40 39 37 37 38 40 41 39 37 38 42 43 43 42 43 45 47 47 48 50 50 50 50 50 51 54 56 55 54 52 50 48 49 50 51 53 56 56 53 51 49 46 44 42 40 39 40 40 39 38 38 38 38 37 38 39 39 40 41 42 43 44 45 46 47 48
38 38 37 37 37 37 39 40 41 40 37 37 38 40 41 40 39 42 45 44 43 44 45 46 48 49 50 49 49 51 52 54 56 58 57 54 53 52 51 51 52 52 51 52 53 53 51 49 47 44 41 39 38 37 38 37 37 37 37 37 36 36 37 38 39 39 40 40 41 42 43 44 45 46
40 40 39 39 38 39 40 40 40 39 38 38 39 41 41 41 42 44 46 45 45 46 47 48 49 50 49 49 50 53 55 57 58 56 54 52 52 53 54 54 54 53 51 50 51 50 47 45 44 42 39 37 36 36 36 35 35 36 37 37 36 37 38 39 39 40 40 41 41 42 42 43 44 44
40 40 40 40 39 39 40 40 39 39 38 38 41 42 41 42 44 46 46 46 46 47 47 47 49 50 51 53 54 56 56 55 54 53 53 54 55 55 55 55 54 52 49 47 48 47 44 42 41 39 37 34 34 35 35 35 35 37 37 37 37 38 39 40 40 41 42 42 43 43 44 44 44 44
40 40 40 40 39 40 39 39 39 39 39 40 41 42 43 44 45 45 44 45 47 47 47 48 49 51 53 54 54 54 53 53 54 55 56 56 56 55 54 53 51 49 46 44 44 43 41 38 36 36 35 34 33 33 33 34 35 37 37 37 37 39 40 41 42 42 43 44 44 45 45 45 45 45
40 39 39 39 39 39 39 39 39 40 40 42 42 41 41 39 38 40 43 46 49 49 49 49 50 51 52 52 52 52 53 54 55 56 56 55 54 52 51 49 47 44 42 41 41 39 37 35 34 34 34 34 34 33 33 32 34 36 37 37 38 39 40 41 41 42 42 43 44 44 44 45 46 46
39 39 38 38 39 38 38 38 39 40 42 42 40 37 36 35 37 45 50 51 50 50 49 50 50 51 51 52 52 53 54 54 54 54 53 51 50 48 47 45 43 41 39 38 38 38 36 35 34 34 34 34 34 34 34 33 34 36 37 37 38 38 39 40 40 41 41 42 42 42 43 44 45 46
37 38 37 38 38 38 38 38 38 39 41 40 37 36 39 41 46 51 53 51 49 49 49 49 49 50 50 51 52 53 52 51 50 49 48 48 47 46 45 43 42 41 40 39 38 37 37 36 35 34 34 34 34 34 34 34 34 35 36 37 37 37 38 38 39 39 40 41 40 41 41 42 44 46
36 36 37 37 38 38 38 38 39 38 38 38 39 41 45 47 49 50 50 49 48 48 48 48 48 49 50 50 50 49 48 47 46 46 46 46 45 45 43 42 41 41 41 40 38 37 36 36 34 34 34 35 35 35 34 34 34 35 36 37 37 37 37 38 38 38 39 39 39 40 41 42 44 46
35 36 37 38 38 38 39 39 39 39 38 39 42 44 46 47 47 48 48 47 46 46 46 47 47 48 48 47 46 44 44 44 44 44 44 44 43 43 42 41 39 39 39 39 38 37 36 36 35 34 34 35 35 35 34 34 35 36 37 37 35 35 36 37 37 38 38 38 39 40 41 42 44 46
35 37 38 38 39 39 40 40 40 39 40 41 42 43 44 45 45 46 45 44 44 45 45 45 45 45 44 43 43 42 42 42 42 42 42 42 42 41 41 39 37 37 37 37 36 36 35 35 35 35 34 34 35 35 36 36 36 36 37 36 35 34 35 35 36 37 38 38 38 39 40 41 43 45
36 37 38 39 39 40 40 39 40 41 41 42 42 42 42 43 43 43 43 43 43 43 43 42 41 41 41 41 40 41 41 42 42 43 43 42 41 41 40 38 36 35 35 36 36 35 34 34 35 35 35 35 35 36 36 36 36 36 36 36 36 35 35 34 34 36 38 38 37 37 38 40 41 44
37 38 38 39 39 40 40 40 42 42 42 42 41 41 41 42 42 41 41 41 40 39 38 37 38 38 38 38 39 40 41 41 41 42 41 41 40 39 39 37 35 34 33 34 35 36 35 35 35 35 36 36 36 36 36 36 36 37 36 36 35 35 34 33 33 35 37 38 37 36 36 38 41 44
37 38 39 39 40 40 41 42 42 42 41 41 40 40 40 41 40 40 39 38 37 35 34 34 34 35 36 36 37 38 39 39 38 38 38 37 36 35 35 35 34 33 32 31 33 34 35 36 36 36 36 36 36 36 36 36 36 36 36 36 35 34 33 33 34 35 37 39 38 35 34 36 40 43
38 39 38 39 40 41 41 41 41 41 40 40 39 39 40 40 40 39 36 34 32 31 31 31 32 32 33 34 35 36 36 36 35 35 34 33 32 31 31 31 31 31 30 30 31 32 33 34 35 36 36 36 36 36 38 38 36 35 35 36 36 34 32 32 33 35 37 39 40 37 35 35 38 40
38 38 39 40 40 40 40 41 41 41 40 40 39 40 40 40 38 35 31 29 28 28 29 29 29 30 31 32 33 34 35 34 34 33 33 32 31 30 29 29 29 29 29 30 31 31 32 33 34 34 34 35 35 35 38 40 39 37 35 35 35 34 33 32 33 35 37 39 40 40 38 36 36 37
38 39 39 40 40 40 40 41 41 41 40 40 40 40 39 37 33 29 27 26 26 26 26 27 28 29 30 32 33 34 35 35 34 33 32 31 30 29 29 28 28 28 29 30 30 31 31 32 33 33 33 33 33 32 34 38 40 39 37 35 34 34 34 33 34 36 38 39 39 39 40 38 33 32
38 39 40 40 39 40 40 41 41 41 40 39 39 38 34 31 28 26 25 25 24 24 25 26 28 30 31 32 33 34 35 35 34 33 32 30 30 29 28 28 28 28 28 29 30 31 31 31 32 32 32 31 31 31 31 34 37 39 40 37 33 33 35 34 35 36 37 38 38 37 39 38 32 28
39 39 39 39 39 40 40 40 40 40 40 39 37 33 29 26 24 24 23 23 23 24 25 27 29 30 31 32 33 33 34 34 34 33 32 31 30 29 28 28 29 29 30 31 32 32 33 32 33 33 33 32 32 31 31 31 33 37 40 39 35 33 34 35 35 35 35 36 36 34 36 38 32 25
38 39 39 39 39 40 40 40 40 40 38 36 32 28 25 23 22 21 21 21 22 24 26 28 29 30 31 32 32 33 33 34 33 33 32 31 30 29 29 29 29 30 31 32 33 33 34 34 34 34 35 34 33 33 31 31 31 33 37 38 36 34 33 34 34 34 34 35 33 30 31 36 33 23
38 38 38 38 39 39 39 40 39 38 35 31 27 24 23 21 20 19 20 21 23 24 26 28 29 30 31 31 32 32 33 34 34 33 32 31 30 29 28 28 28 29 29 30 31 32 33 33 34 34 34 34 34 33 32 31 31 31 33 36 36 36 35 35 36 36 35 34 31 26 26 33 31 24
37 37 37 38 39 39 39 38 37 34 30 26 24 22 21 19 19 19 19 21 23 25 27 28 29 30 30 31 31 32 33 33 34 33 32 30 29 28 27 27 27 28 28 29 30 31 31 32 33 33 33 33 33 32 31 30 29 29 30 32 34 36 37 38 39 40 39 36 30 23 24 28 27 22
36 37 37 38 39 38 37 35 33 29 26 24 22 21 20 18 18 19 20 22 24 26 27 28 29 30 30 31 31 31 32 33 34 34 32 30 28 27 27 27 27 28 29 29 30 31 31 32 32 32 32 32 32 31 30 29 27 26 26 27 29 32 35 36 38 40 41 37 28 20 21 24 22 18
36 36 37 38 38 36 34 31 28 26 25 23 22 20 19 17 17 19 21 23 25 26 27 28 29 30 30 30 30 31 32 33 34 34 33 30 28 27 27 28 28 28 29 30 31 32 32 33 33 32 32 31 30 29 27 26 24 23 23 24 26 28 30 32 34 37 40 38 30 21 19 20 18 15
35 36 37 37 35 33 29 27 26 26 25 23 21 19 17 17 17 19 21 23 25 26 27 29 29 30 30 30 30 30 31 32 33 33 33 31 28 27 27 28 28 29 29 30 31 32 32 33 33 33 31 30 28 27 25 23 22 21 21 23 24 25 26 27 29 32 36 34 28 22 18 16 15 15
35 36 36 35 32 28 26 26 26 27 26 23 19 17 16 17 18 20 22 24 25 27 28 29 30 30 30 30 30 30 30 31 32 32 32 31 29 28 27 27 28 29 29 30 31 31 32 33 33 33 31 29 27 25 23 22 20 20 21 22 23 24 25 26 27 29 30 26 21 19 17 15 15 16
Wind_Direction
328 328 328 329 329 328 330 335 339 341 340 336 328 321 318 317 316 313 309 306 306 305 304 301 297 293 292 291 290 289 287 285 283 282 283 283 281 277 272 268 267 270 275 281 285 289 291 291 290 287 284 281 279 278 277 275 273 271 270 269 267 264 260 257 255 254 253 253 252 250 249 249 250 250
325 324 324 325 328 331 333 334 336 338 338 336 331 325 320 318 314 312 310 309 308 306 303 300 296 293 291 290 289 287 285 283 280 279 278 279 278 276 273 273 274 278 282 285 288 290 291 291 290 288 286 284 282 281 280 277 276 274 271 269 267 265 263 261 260 258 256 255 254 253 251 248 247 247
323 321 320 319 321 325 328 329 330 333 335 335 332 326 319 315 312 310 310 311 310 307 304 300 296 293 291 290 289 286 283 280 277 275 275 275 276 276 276 278 279 282 285 288 290 292 292 291 290 288 288 288 287 287 286 283 280 277 274 271 269 268 266 265 263 261 260 257 255 254 252 250 248 246
321 318 317 315 315 318 321 323 324 327 330 331 330 326 320 314 311 310 310 311 311 309 306 302 296 292 291 290 289 287 285 282 280 277 277 276 277 277 278 279 281 283 285 287 289 290 290 290 289 288 287 288 289 291 291 288 285 282 277 273 271 272 271 269 266 264 262 259 257 255 253 251 249 247
322 318 315 314 313 314 316 318 319 321 324 326 326 325 322 317 312 309 307 308 309 309 306 302 295 291 292 293 291 289 286 285 284 283 283 282 281 281 280 281 281 283 284 286 288 290 290 290 290 289 289 290 290 291 291 290 288 286 282 279 278 277 276 273 270 267 264 261 259 257 255 252 250 247
326 320 316 314 314 313 313 314 315 316 318 320 321 321 320 318 314 310 305 303 305 306 305 302 296 291 292 292 291 289 286 285 286 285 284 283 282 282 282 283 285 287 289 290 291 291 292 292 293 293 293 294 294 293 293 291 290 288 286 284 282 281 280 277 274 271 267 264 262 259 257 255 252 249
329 323 317 315 314 313 312 312 313 313 314 314 315 315 315 314 312 309 305 302 301 302 303 302 298 292 289 291 293 293 291 289 288 286 283 281 280 280 282 285 288 292 294 295 295 294 293 293 292 291 291 290 290 290 290 290 289 288 287 285 284 282 281 279 277 275 272 269 266 263 260 258 255 252
327 323 318 316 315 314 312 312 311 311 311 310 310 310 310 310 309 307 305 303 301 300 301 303 301 295 290 290 293 295 295 293 290 288 285 282 281 281 283 286 290 292 295 297 298 297 295 293 291 290 288 288 287 287 287 287 286 286 285 284 283 282 281 280 279 278 275 273 270 266 263 260 257 254
323 320 316 314 314 313 311 310 310 310 309 307 307 307 308 308 307 305 303 303 303 302 302 302 301 297 290 287 288 291 294 296 295 292 288 285 285 285 288 291 294 297 299 301 302 300 297 292 290 288 288 288 288 288 287 285 284 283 283 282 281 281 280 280 279 278 276 274 271 268 264 261 258 256
319 316 313 311 310 310 308 308 309 309 308 306 306 306 307 308 307 305 304 304 303 302 302 302 301 298 293 288 286 288 291 293 295 294 290 287 286 288 292 295 298 300 302 302 303 302 298 293 290 289 290 290 291 290 290 289 287 286 284 282 281 281 280 279 278 277 275 273 270 267 264 261 259 256
317 315 312 310 310 309 308 308 309 308 306 306 306 306 307 308 308 307 306 305 303 302 304 304 304 302 298 294 292 291 291 290 290 292 292 289 287 288 290 294 297 298 299 299 299 298 296 292 290 290 291 292 292 292 291 291 290 289 286 284 282 280 279 277 276 274 272 271 268 266 264 262 260 259
316 313 312 311 311 310 309 310 309 306 305 305 305 305 306 307 308 308 307 307 305 305 306 306 306 304 301 299 298 296 292 290 290 291 292 290 288 288 290 293 294 296 297 296 295 294 292 289 288 289 291 292 292 291 290 289 288 287 285 284 283 281 279 277 275 273 271 269 267 266 265 263 262 262
314 312 311 311 310 310 310 310 308 305 304 304 304 304 305 306 307 308 309 308 307 306 306 306 307 306 302 300 298 296 293 291 290 290 289 287 287 288 291 294 295 295 295 294 293 293 290 287 287 288 290 291 290 290 289 287 285 284 282 282 281 281 280 278 276 274 271 269 267 266 265 264 264 263
314 312 312 311 310 310 310 309 306 304 303 303 303 303 304 305 306 306 307 308 307 306 306 306 306 305 302 298 296 296 294 293 291 290 287 287 288 290 293 296 298 297 295 294 294 292 289 287 287 288 289 290 290 289 288 285 283 282 281 280 279 278 277 276 275 274 272 270 268 265 264 263 262 262
314 313 312 312 311 311 310 308 305 303 302 302 302 302 304 305 304 303 304 306 306 305 305 305 304 304 301 298 297 298 298 297 296 292 288 288 290 291 292 296 299 298 296 294 293 291 289 288 289 289 290 290 289 288 285 284 283 282 281 279 278 277 276 275 274 273 272 270 268 266 263 261 259 258
317 314 313 313 313 312 311 309 305 303 303 304 303 303 303 303 301 300 302 305 305 304 305 304 303 302 300 298 298 300 299 298 297 293 289 289 291 291 293 297 299 298 295 294 293 291 290 290 290 290 290 289 287 285 284 283 283 281 280 279 278 277 276 275 274 272 270 269 267 265 263 261 258 257
320 316 315 315 315 313 311 309 306 305 305 305 304 302 301 299 298 298 302 304 304 305 305 304 301 299 298 298 299 299 300 299 296 292 290 292 294 294 297 300 300 296 293 293 293 293 293 292 291 291 289 287 286 285 284 283 280 279 278 278 277 277 276 275 274 272 270 268 266 264 263 262 260 258
321 319 318 318 317 314 312 311 308 307 307 305 302 300 298 297 296 298 301 304 304 305 304 300 296 295 297 298 299 300 300 299 295 291 292 295 297 298 300 301 299 295 293 293 293 294 293 292 291 290 288 287 287 285 283 280 279 279 279 278 278 277 276 276 274 273 272 270 267 266 264 262 261 259
321 321 320 320 317 315 314 312 310 309 308 305 301 299 298 296 295 297 301 303 303 303 299 295 294 295 297 300 301 300 299 297 293 292 295 298 299 300 300 300 297 295 295 295 295 294 293 292 290 289 287 286 286 283 280 279 279 279 279 279 279 279 278 277 276 275 273 271 269 267 265 263 261 259
320 321 321 320 318 315 315 313 311 310 309 305 301 299 298 297 297 299 301 302 302 301 299 297 298 298 299 301 301 300 299 297 295 295 298 301 301 300 300 299 298 298 298 297 296 294 293 291 289 287 286 285 282 279 277 277 277 277 277 278 278 279 279 278 277 275 273 271 269 267 265 263 261 259
318 320 320 320 318 316 315 313 312 310 308 304 301 299 298 298 298 298 298 299 299 299 298 298 298 299 300 301 300 298 297 296 296 298 300 301 300 300 300 299 299 299 297 296 295 293 291 289 287 286 285 282 279 276 276 276 277 277 278 278 279 280 280 279 277 276 275 274 272 269 267 265 263 260
317 319 319 319 318 316 315 312 310 308 306 302 300 298 298 297 295 294 295 297 296 295 295 295 295 297 298 297 295 295 296 297 298 299 300 300 300 300 300 299 298 298 296 294 293 292 290 288 287 285 282 280 279 277 276 277 279 279 280 281 282 283 282 280 278 277 277 277 275 274 271 269 266 262
316 317 318 318 317 315 313 310 308 307 305 301 298 297 296 294 292 292 294 295 295 296 297 296 295 295 294 293 294 296 298 299 300 300 301 301 301 300 300 298 297 296 294 292 291 290 289 288 286 284 281 279 278 278 278 279 280 280 280 281 282 281 280 279 278 278 277 277 276 275 274 272 269 266
314 315 316 316 314 312 310 309 308 307 306 301 298 297 296 293 291 292 293 294 296 299 299 297 296 296 297 297 298 299 300 300 301 301 301 300 300 299 299 298 297 296 294 291 290 290 289 287 284 282 281 279 276 275 276 279 278 278 279 279 279 279 278 278 277 277 276 275 275 275 274 273 271 269
312 312 313 313 311 310 309 308 308 308 306 303 302 302 300 297 296 297 298 300 301 302 301 300 300 300 301 300 300 300 300 300 300 300 300 300 300 300 299 298 297 296 294 292 290 290 288 286 283 281 279 278 275 273 274 276 277 277 277 277 276 275 275 275 275 275 275 274 274 274 273 272 272 270
309 310 310 310 308 307 307 307 308 308 307 305 304 302 299 296 296 300 302 303 304 303 302 301 301 300 299 299 299 300 300 301 301 301 301 301 301 300 299 297 297 295 294 291 290 289 287 285 282 280 277 275 274 274 274 275 276 277 277 276 275 275 274 274 274 274 274 273 274 274 273 272 271 270
308 308 307 307 306 306 307 306 306 309 310 306 300 298 297 295 296 298 301 302 302 302 301 300 300 299 299 300 300 301 302 302 302 302 301 301 300 299 298 298 297 295 293 291 289 288 287 285 283 281 278 276 275 275 275 276 278 279 280 280 279 278 276 275 274 273 274 274 275 275 274 272 271 269
306 306 305 305 305 305 306 305 305 308 309 302 296 295 296 297 297 298 300 301 301 300 300 300 301 301 302 302 303 303 303 303 302 302 301 301 300 300 299 299 298 296 294 292 290 289 287 286 284 281 279 278 277 276 277 278 280 281 281 281 280 280 279 278 277 276 277 277 277 276 274 272 270 269
304 304 304 304 305 306 307 305 304 305 304 299 296 296 297 297 298 299 300 301 301 301 301 303 303 304 303 304 304 305 304 304 304 303 303 302 301 301 300 299 297 294 292 291 290 288 286 285 283 281 280 280 281 280 281 281 281 281 280 279 279 280 281 282 281 280 280 279 277 276 275 274 272 270
303 303 303 304 306 307 307 305 303 303 303 302 301 300 300 300 300 301 302 302 303 303 303 304 304 304 304 306 307 308 308 307 307 306 306 305 304 302 300 298 296 294 292 290 288 287 286 285 283 283 282 283 284 284 284 283 282 282 281 281 280 280 280 281 280 280 279 278 278 278 277 276 275 274
303 302 304 306 307 307 306 306 305 306 306 305 304 303 302 302 302 303 304 304 304 304 304 305 305 306 307 309 311 311 311 310 310 309 308 306 304 302 300 299 298 296 295 293 291 289 287 286 286 285 286 286 286 286 286 285 284 283 284 284 283 281 281 281 280 279 280 279 279 280 279 279 278 277
302 303 305 306 307 307 307 308 309 309 308 307 305 304 304 305 304 305 305 305 305 304 304 306 307 309 311 313 313 313 313 313 312 311 309 307 304 302 301 300 299 297 295 294 293 292 291 289 289 288 288 288 288 288 287 287 286 285 285 285 283 282 283 283 282 282 283 283 283 283 283 282 281 280
302 304 306 307 308 309 310 311 311 309 308 307 307 306 306 306 306 307 307 306 305 305 306 309 311 312 314 315 316 316 316 316 315 313 311 309 307 304 302 300 298 295 292 291 291 292 293 293 292 292 292 291 291 291 289 287 286 286 286 285 284 284 285 285 286 287 288 287 287 287 286 285 285 283
304 306 308 309 310 311 311 311 310 309 309 309 309 308 308 307 308 309 308 306 305 306 309 311 313 315 316 318 320 321 321 320 319 318 317 315 311 307 303 300 298 296 295 294 293 293 294 294 294 294 295 295 295 294 291 288 287 286 286 286 285 284 285 287 289 290 291 292 293 293 291 290 289 286
306 308 310 310 311 311 311 311 310 310 311 311 310 309 309 309 310 309 306 305 306 308 311 313 316 318 320 323 324 325 325 325 324 323 322 320 317 312 308 305 303 302 301 299 298 296 295 294 293 293 293 293 293 294 294 293 292 290 289 289 290 289 289 291 292 292 294 296 297 298 296 293 290 285
307 309 310 310 311 311 311 310 311 312 312 312 311 310 309 309 309 307 306 306 308 311 313 316 319 321 323 325 327 329 329 329 327 326 325 323 321 319 317 315 313 310 307 303 301 299 297 295 294 292 291 290 290 291 292 293 293 293 290 290 292 293 293 294 295 295 297 298 298 300 299 295 288 278
308 309 310 311 311 311 310 311 312 312 312 312 310 309 308 307 304 303 305 307 309 313 316 318 320 322 323 326 329 331 332 330 328 326 325 324 323 323 323 322 319 315 312 308 305 303 301 299 298 296 294 293 290 289 288 289 292 293 292 292 293 294 294 294 294 295 296 297 299 302 300 293 283 270
309 309 310 311 311 310 311 312 312 312 312 310 308 306 304 301 300 301 304 306 310 315 317 320 321 323 325 327 330 332 332 331 328 326 325 324 324 324 323 322 319 316 313 310 308 306 304 303 301 299 297 295 293 290 288 287 289 292 293 295 296 295 294 293 292 293 296 297 300 304 300 290 280 266
309 310 311 311 310 310 312 312 312 311 310 308 306 303 300 299 299 302 305 309 313 317 319 321 323 324 326 328 330 331 333 331 329 327 325 325 325 324 322 320 317 315 313 311 310 309 307 306 304 302 300 298 296 294 292 289 289 291 293 295 296 296 295 295 295 297 300 301 304 306 296 285 278 267
309 310 310 310 310 311 312 312 311 310 308 306 304 300 298 299 301 304 308 312 316 318 320 322 324 325 326 327 329 331 333 333 331 329 327 326 326 325 323 322 320 319 319 317 316 315 313 311 309 307 304 302 300 298 296 294 294 294 295 297 300 301 302 303 304 305 305 306 308 305 287 276 275 271
308 308 308 309 309 310 310 310 309 308 306 304 301 298 297 300 304 309 312 315 317 319 321 323 325 325 326 327 328 331 333 334 333 332 330 329 328 327 326 326 326 326 325 324 324 323 321 319 317 314 311 308 305 302 300 299 298 298 298 300 302 305 307 310 311 311 310 311 314 306 283 274 274 269
306 307 307 308 309 309 308 308 307 305 304 302 299 296 297 301 307 312 315 316 318 320 322 324 325 325 326 327 329 331 333 334 335 334 333 331 329 328 328 328 328 328 329 329 330 330 329 327 324 321 318 314 310 307 304 302 300 298 298 299 302 306 309 312 313 313 313 314 316 306 284 276 272 263
305 307 308 308 308 308 308 307 304 302 302 300 297 295 296 302 309 313 314 316 318 320 323 324 324 325 326 327 329 330 332 334 335 336 335 332 330 329 329 328 328 329 330 332 333 334 334 332 330 327 324 320 317 313 309 305 302 301 300 301 303 305 308 312 315 317 316 316 317 308 287 274 266 257
305 307 307 306 306 307 306 304 301 300 300 298 295 293 296 303 309 312 314 316 318 321 323 324 324 325 326 327 328 330 331 333 335 335 335 334 332 330 330 329 329 330 331 333 335 336 337 335 333 331 329 327 323 319 314 309 306 305 304 303 304 306 309 313 316 317 316 315 313 306 289 270 259 259
306 306 305 304 306 307 304 300 298 298 298 296 293 291 296 302 308 311 313 315 318 321 323 323 324 325 325 327 328 329 330 331 333 335 335 335 333 331 331 331 331 332 333 335 337 339 338 337 335 334 333 332 329 325 320 315 313 311 309 309 311 314 317 318 319 318 318 315 308 297 283 264 253 254
Height
5892 5890 5890 5889 5889 5888 5886 5885 5884 5882 5881 5880 5879 5879 5878 5877 5876 5875 5875 5875 5874 5873 5873 5872 5871 5871 5870 5869 5868 5867 5867 5866 5866 5865 5865 5864 5863 5863 5863 5862 5862 5862 5862 5862 5861 5861 5860 5859 5859 5858 5857 5857 5856 5856 5855 5855 5855 5855 5855 5855 5854 5854 5854 5854 5854 5855 5855 5855 5856 5856 5857 5857 5857 5857
5890 5889 5887 5886 5886 5885 5884 5883 5882 5881 5880 5878 5877 5876 5875 5875 5874 5873 5872 5871 5871 5870 5870 5869 5868 5868 5867 5866 5866 5865 5864 5863 5863 5862 5862 5861 5861 5860 5860 5859 5859 5858 5858 5857 5856 5856 5855 5855 5854 5853 5853 5852 5852 5851 5851 5850 5850 5850 5849 5849 5849 5849 5849 5849 5849 5849 5850 5850 5851 5851 5852 5852 5853 5853
5888 5887 5885 5883 5883 5882 5882 5881 5880 5879 5878 5877 5876 5875 5874 5873 5872 5870 5869 5868 5868 5867 5866 5865 5865 5864 5864 5863 5863 5862 5861 5861 5861 5860 5859 5859 5858 5858 5857 5856 5855 5854 5854 5853 5852 5851 5850 5849 5849 5848 5847 5847 5846 5846 5845 5845 5844 5844 5844 5843 5843 5843 5843 5844 5844 5844 5844 5845 5845 5846 5846 5847 5848 5848
5886 5884 5883 5881 5880 5880 5879 5878 5877 5877 5876 5875 5874 5873 5872 5871 5869 5868 5866 5865 5865 5864 5863 5862 5861 5860 5860 5859 5859 5858 5858 5857 5857 5857 5856 5855 5855 5854 5853 5853 5851 5850 5849 5848 5847 5846 5845 5844 5843 5842 5842 5841 5840 5839 5839 5838 5838 5837 5837 5837 5836 5836 5837 5837 5837 5838 5838 5838 5839 5839 5840 5840 5841 5842
5884 5882 5881 5879 5878 5877 5877 5876 5875 5874 5873 5872 5871 5870 5869 5868 5866 5865 5864 5862 5861 5861 5860 5858 5858 5857 5856 5855 5855 5855 5854 5854 5853 5853 5852 5851 5850 5850 5849 5848 5847 5845 5844 5843 5842 5841 5840 5839 5838 5836 5835 5835 5834 5833 5832 5832 5831 5830 5830 5829 5829 5829 5829 5830 5830 5831 5831 5831 5832 5832 5833 5834 5835 5836
5883 5881 5879 5877 5876 5875 5874 5873 5872 5871 5870 5869 5868 5867 5866 5865 5864 5862 5861 5860 5858 5857 5856 5856 5854 5854 5853 5852 5852 5851 5851 5850 5849 5849 5847 5847 5846 5845 5844 5843 5841 5840 5839 5838 5837 5836 5835 5833 5832 5830 5829 5828 5826 5826 5825 5824 5824 5823 5823 5822 5822 5822 5822 5823 5823 5823 5824 5824 5825 5825 5826 5827 5827 5828
5880 5879 5877 5875 5874 5873 5871 5871 5870 5869 5868 5867 5865 5864 5863 5862 5860 5859 5858 5856 5855 5854 5853 5852 5851 5850 5850 5849 5848 5847 5847 5846 5845 5844 5843 5842 5842 5840 5839 5838 5836 5835 5833 5832 5831 5829 5828 5827 5826 5825 5824 5822 5821 5820 5819 5818 5817 5816 5816 5816 5815 5815 5816 5816 5816 5816 5816 5817 5817 5818 5819 5820 5820 5821
5877 5876 5874 5873 5872 5870 5869 5868 5867 5866 5865 5864 5862 5861 5859 5858 5856 5855 5854 5853 5852 5850 5849 5848 5847 5847 5846 5845 5844 5843 5843 5842 5841 5840 5839 5838 5837 5836 5834 5833 5832 5830 5829 5827 5825 5823 5821 5820 5819 5818 5817 5817 5816 5815 5814 5813 5812 5811 5810 5810 5810 5809 5809 5809 5809 5809 5809 5809 5810 5811 5812 5812 5813 5814
5875 5873 5871 5870 5869 5868 5866 5864 5863 5862 5861 5860 5859 5857 5856 5855 5853 5852 5851 5850 5849 5847 5846 5845 5844 5843 5842 5841 5840 5839 5838 5838 5836 5835 5834 5833 5831 5830 5829 5827 5826 5824 5822 5820 5819 5817 5816 5814 5813 5812 5811 5810 5809 5808 5807 5806 5806 5805 5804 5804 5803 5803 5802 5802 5802 5802 5802 5802 5803 5804 5805 5805 5806 5807
5872 5870 5868 5867 5866 5864 5863 5861 5860 5859 5858 5856 5855 5854 5852 5851 5850 5849 5848 5846 5845 5844 5843 5842 5841 5840 5839 5837 5836 5834 5834 5833 5832 5831 5829 5827 5825 5824 5823 5821 5819 5817 5816 5814 5812 5811 5809 5808 5806 5805 5804 5803 5801 5800 5799 5798 5797 5797 5797 5796 5796 5795 5795 5795 5795 5795 5795 5795 5796 5797 5797 5798 5799 5800
5869 5867 5866 5864 5863 5861 5860 5858 5857 5856 5854 5853 5852 5850 5849 5848 5847 5846 5844 5843 5842 5841 5840 5838 5837 5835 5834 5833 5831 5830 5829 5829 5827 5826 5824 5822 5820 5818 5817 5815 5813 5811 5810 5809 5807 5805 5803 5802 5800 5798 5797 5795 5794 5792 5791 5790 5789 5788 5788 5787 5787 5787 5787 5787 5787 5788 5788 5788 5789 5789 5790 5791 5791 5792
5866 5865 5863 5862 5860 5858 5857 5856 5855 5853 5851 5850 5848 5847 5845 5844 5843 5842 5841 5839 5838 5837 5836 5834 5832 5831 5829 5828 5826 5825 5824 5823 5821 5820 5819 5817 5814 5813 5811 5809 5807 5806 5805 5803 5802 5800 5798 5796 5793 5792 5790 5788 5787 5785 5784 5783 5782 5781 5780 5779 5779 5779 5779 5779 5780 5780 5780 5780 5781 5781 5782 5782 5783 5784
5863 5862 5861 5859 5857 5856 5854 5853 5852 5850 5848 5846 5845 5843 5841 5840 5839 5838 5837 5835 5834 5832 5831 5829 5828 5826 5825 5823 5821 5820 5818 5817 5815 5814 5812 5810 5809 5807 5806 5803 5801 5800 5799 5797 5795 5793 5791 5789 5787 5785 5783 5781 5780 5778 5777 5776 5775 5774 5773 5772 5771 5770 5770 5770 5770 5770 5771 5771 5772 5772 5773 5773 5774 5775
5860 5859 5858 5856 5855 5853 5852 5850 5848 5846 5845 5843 5841 5839 5837 5836 5835 5834 5832 5830 5829 5827 5826 5824 5822 5821 5820 5817 5816 5814 5813 5811 5809 5808 5805 5804 5802 5801 5800 5797 5794 5792 5791 5790 5789 5786 5783 5782 5781 5778 5776 5774 5772 5771 5770 5768 5767 5766 5765 5764 5763 5762 5762 5761 5761 5761 5761 5762 5762 5763 5764 5764 5764 5765
5858 5856 5854 5853 5852 5850 5848 5846 5844 5843 5841 5839 5837 5835 5833 5832 5831 5829 5828 5826 5824 5822 5820 5819 5817 5815 5814 5812 5810 5808 5807 5805 5803 5802 5800 5798 5796 5794 5793 5792 5788 5784 5783 5782 5782 5779 5776 5775 5774 5771 5769 5767 5765 5763 5762 5760 5759 5758 5756 5756 5755 5754 5753 5753 5752 5752 5752 5752 5753 5753 5754 5755 5755 5756
5855 5853 5851 5850 5848 5846 5844 5842 5840 5839 5837 5835 5832 5830 5828 5827 5826 5825 5823 5821 5818 5817 5815 5813 5811 5810 5808 5807 5805 5802 5801 5799 5797 5796 5794 5792 5790 5788 5786 5785 5782 5777 5775 5774 5774 5772 5769 5767 5766 5764 5761 5759 5758 5756 5754 5752 5751 5749 5748 5747 5746 5745 5744 5744 5744 5744 5744 5743 5744 5744 5744 5745 5746 5747
5851 5850 5848 5846 5844 5842 5841 5839 5837 5835 5833 5830 5827 5825 5824 5823 5822 5820 5819 5816 5813 5811 5809 5807 5806 5804 5802 5801 5799 5796 5794 5792 5790 5789 5787 5785 5783 5781 5778 5777 5774 5771 5767 5766 5766 5765 5762 5759 5757 5756 5753 5751 5750 5748 5746 5744 5742 5741 5740 5739 5738 5737 5736 5736 5735 5735 5735 5735 5735 5735 5735 5736 5737 5738
5847 5846 5844 5842 5840 5838 5837 5835 5833 5830 5828 5825 5822 5820 5819 5818 5817 5816 5815 5811 5808 5806 5804 5801 5800 5798 5796 5794 5793 5789 5787 5785 5783 5781 5780 5778 5776 5773 5771 5769 5767 5763 5760 5758 5758 5758 5755 5750 5749 5748 5745 5743 5742 5740 5737 5735 5734 5733 5733 5731 5731 5730 5729 5728 5728 5727 5727 5727 5727 5727 5727 5728 5728 5729
5844 5842 5840 5838 5836 5834 5833 5830 5828 5826 5824 5821 5818 5815 5813 5813 5812 5812 5810 5807 5805 5803 5800 5797 5795 5793 5790 5788 5786 5783 5780 5778 5776 5775 5773 5771 5768 5766 5764 5762 5759 5755 5752 5750 5750 5750 5747 5742 5741 5740 5738 5736 5735 5732 5729 5728 5727 5726 5725 5724 5723 5723 5722 5721 5721 5720 5720 5720 5720 5719 5719 5720 5720 5720
5840 5838 5836 5834 5832 5830 5828 5826 5823 5821 5819 5816 5813 5810 5808 5807 5807 5806 5804 5803 5801 5798 5795 5792 5789 5787 5784 5781 5779 5777 5774 5772 5770 5768 5766 5764 5760 5758 5757 5755 5752 5748 5743 5740 5740 5740 5738 5735 5733 5733 5731 5729 5728 5724 5722 5721 5720 5719 5718 5718 5717 5716 5715 5715 5714 5713 5713 5712 5712 5712 5712 5712 5712 5712
5835 5834 5832 5830 5828 5826 5823 5821 5818 5816 5814 5811 5809 5806 5803 5802 5802 5800 5799 5799 5798 5793 5790 5788 5784 5781 5779 5776 5773 5771 5768 5765 5763 5760 5759 5756 5753 5751 5749 5747 5745 5741 5736 5733 5731 5731 5730 5728 5726 5725 5724 5722 5720 5718 5716 5715 5714 5713 5712 5711 5710 5710 5709 5708 5707 5707 5706 5705 5705 5704 5704 5704 5704 5704
5831 5830 5828 5826 5824 5822 5819 5817 5814 5811 5809 5806 5804 5801 5800 5799 5797 5795 5795 5795 5793 5789 5786 5783 5779 5776 5774 5771 5768 5764 5761 5758 5755 5753 5751 5749 5746 5744 5742 5739 5738 5735 5730 5725 5724 5724 5722 5720 5718 5717 5717 5715 5713 5711 5709 5709 5708 5706 5705 5704 5703 5703 5702 5701 5701 5700 5699 5698 5697 5697 5696 5696 5696 5696
5827 5825 5824 5822 5820 5817 5815 5813 5810 5807 5804 5801 5798 5797 5796 5794 5791 5790 5790 5788 5785 5782 5780 5776 5773 5770 5767 5764 5761 5758 5754 5751 5748 5746 5744 5741 5739 5736 5734 5731 5729 5728 5724 5719 5716 5716 5715 5713 5711 5709 5709 5709 5708 5705 5703 5703 5702 5700 5699 5698 5698 5697 5696 5695 5694 5693 5693 5691 5690 5690 5689 5688 5688 5688
5822 5821 5819 5817 5815 5813 5811 5809 5806 5803 5799 5796 5793 5792 5790 5787 5785 5784 5783 5781 5778 5775 5773 5769 5766 5763 5760 5756 5753 5750 5747 5744 5741 5739 5736 5734 5731 5728 5726 5723 5721 5719 5716 5712 5709 5709 5708 5706 5705 5703 5702 5703 5702 5700 5699 5698 5696 5694 5693 5693 5692 5691 5689 5689 5688 5687 5686 5685 5684 5683 5682 5681 5680 5680
5818 5816 5814 5812 5811 5809 5807 5804 5801 5798 5793 5790 5788 5787 5783 5781 5779 5777 5775 5773 5770 5768 5765 5762 5759 5756 5752 5749 5746 5743 5741 5738 5735 5731 5728 5726 5723 5721 5718 5716 5713 5711 5709 5705 5703 5702 5701 5700 5699 5697 5696 5696 5696 5695 5694 5693 5690 5689 5688 5687 5686 5685 5683 5682 5681 5680 5679 5678 5677 5676 5675 5674 5673 5672
5813 5811 5809 5807 5806 5804 5802 5799 5797 5793 5788 5785 5784 5783 5780 5778 5776 5772 5768 5766 5763 5761 5758 5755 5752 5749 5746 5743 5740 5737 5734 5731 5728 5724 5721 5718 5716 5714 5711 5709 5707 5705 5703 5699 5697 5696 5695 5694 5692 5691 5690 5690 5689 5688 5688 5687 5685 5683 5682 5681 5680 5678 5677 5675 5675 5674 5672 5671 5670 5669 5668 5667 5666 5665
5807 5806 5804 5802 5801 5799 5797 5794 5792 5789 5785 5781 5778 5777 5775 5774 5771 5767 5763 5760 5757 5754 5752 5749 5746 5743 5740 5737 5734 5731 5727 5724 5721 5718 5715 5712 5710 5707 5705 5702 5700 5698 5696 5694 5691 5690 5689 5687 5686 5685 5684 5683 5683 5682 5681 5680 5679 5677 5676 5674 5672 5671 5670 5668 5668 5667 5665 5664 5664 5662 5661 5660 5659 5657
5802 5801 5799 5797 5796 5794 5791 5789 5786 5786 5784 5779 5775 5772 5770 5767 5764 5761 5758 5755 5752 5749 5746 5743 5740 5737 5733 5731 5728 5725 5722 5718 5715 5712 5709 5707 5704 5701 5698 5696 5693 5691 5689 5687 5685 5683 5682 5681 5680 5679 5677 5676 5676 5675 5675 5674 5673 5671 5670 5668 5666 5664 5662 5661 5660 5659 5658 5657 5657 5656 5654 5653 5651 5649
5797 5795 5794 5792 5790 5788 5786 5783 5780 5780 5780 5777 5773 5769 5766 5762 5759 5756 5752 5749 5746 5743 5740 5737 5734 5731 5727 5725 5722 5720 5716 5713 5710 5708 5704 5701 5698 5695 5692 5690 5687 5685 5683 5681 5679 5677 5676 5675 5674 5673 5672 5670 5669 5668 5668 5667 5667 5665 5663 5662 5660 5659 5656 5654 5653 5652 5651 5650 5650 5648 5647 5645 5644 5642
5792 5790 5788 5786 5784 5782 5779 5777 5774 5773 5772 5770 5767 5764 5760 5757 5753 5750 5747 5744 5741 5737 5734 5732 5728 5725 5722 5719 5717 5714 5711 5708 5705 5702 5699 5695 5692 5689 5687 5684 5682 5679 5677 5675 5673 5672 5670 5669 5668 5667 5666 5665 5663 5662 5661 5660 5660 5658 5656 5654 5653 5652 5651 5649 5647 5645 5644 5643 5643 5641 5640 5637 5636 5634
5786 5785 5783 5780 5778 5776 5773 5771 5769 5767 5765 5762 5760 5757 5754 5751 5748 5745 5742 5739 5736 5732 5729 5727 5723 5720 5718 5715 5712 5709 5706 5703 5699 5696 5693 5690 5687 5684 5681 5679 5677 5674 5671 5669 5667 5666 5665 5664 5662 5661 5660 5659 5658 5656 5655 5654 5652 5651 5649 5648 5646 5645 5644 5643 5641 5639 5636 5635 5636 5635 5632 5630 5628 5624
5781 5779 5777 5775 5772 5770 5767 5765 5763 5761 5759 5756 5754 5751 5748 5746 5743 5740 5738 5734 5731 5727 5725 5722 5719 5716 5714 5711 5708 5705 5701 5698 5694 5691 5688 5685 5682 5679 5676 5673 5672 5670 5668 5665 5662 5661 5659 5658 5657 5655 5654 5653 5652 5651 5649 5648 5646 5644 5643 5642 5640 5638 5637 5636 5634 5632 5629 5627 5628 5628 5626 5623 5619 5615
5776 5774 5772 5769 5767 5764 5762 5760 5758 5755 5753 5750 5748 5746 5743 5741 5738 5735 5732 5729 5726 5723 5720 5718 5715 5713 5710 5707 5704 5700 5697 5693 5690 5687 5684 5681 5678 5675 5672 5669 5667 5666 5664 5662 5660 5657 5655 5653 5651 5650 5649 5647 5646 5644 5642 5641 5640 5638 5636 5635 5633 5632 5631 5629 5626 5624 5621 5619 5618 5619 5619 5615 5611 5606
5770 5768 5766 5763 5761 5758 5757 5755 5752 5750 5747 5745 5743 5740 5738 5735 5733 5730 5727 5724 5722 5719 5717 5715 5712 5710 5707 5703 5700 5697 5693 5690 5686 5683 5679 5676 5674 5671 5668 5666 5664 5661 5660 5658 5656 5654 5652 5650 5647 5645 5644 5642 5641 5638 5635 5633 5633 5633 5631 5629 5627 5626 5625 5623 5620 5617 5615 5611 5609 5609 5609 5607 5603 5597
5765 5763 5761 5758 5755 5753 5751 5749 5747 5745 5742 5740 5737 5734 5732 5730 5727 5725 5723 5720 5718 5716 5714 5712 5709 5707 5703 5700 5697 5693 5690 5686 5683 5679 5676 5673 5670 5667 5665 5662 5660 5658 5655 5653 5651 5650 5648 5646 5644 5642 5640 5638 5636 5634 5629 5625 5624 5625 5624 5623 5621 5618 5617 5616 5614 5611 5609 5605 5601 5599 5598 5598 5596 5589
5760 5758 5755 5753 5751 5749 5746 5744 5742 5740 5737 5735 5732 5729 5727 5724 5722 5720 5719 5717 5715 5713 5711 5708 5706 5703 5700 5697 5694 5690 5686 5683 5679 5676 5672 5669 5667 5664 5661 5659 5656 5654 5652 5649 5647 5645 5644 5642 5639 5638 5636 5634 5633 5631 5627 5621 5618 5616 5616 5617 5616 5613 5611 5610 5608 5605 5602 5599 5596 5592 5589 5588 5587 5583
5754 5752 5750 5748 5746 5743 5741 5739 5737 5734 5732 5730 5727 5725 5723 5721 5719 5717 5715 5714 5712 5710 5708 5706 5703 5700 5697 5694 5691 5687 5683 5680 5676 5673 5670 5666 5664 5661 5658 5655 5653 5650 5648 5645 5643 5641 5639 5637 5634 5632 5630 5629 5627 5626 5624 5620 5615 5610 5608 5610 5611 5609 5606 5604 5602 5600 5597 5593 5590 5587 5582 5579 5579 5577
5748 5746 5744 5742 5740 5738 5736 5734 5732 5730 5728 5726 5723 5721 5720 5718 5716 5715 5713 5711 5709 5707 5705 5702 5700 5697 5694 5691 5687 5684 5680 5677 5673 5670 5667 5664 5661 5658 5655 5653 5650 5647 5645 5642 5639 5636 5634 5632 5629 5627 5624 5623 5621 5619 5618 5616 5613 5607 5602 5602 5604 5604 5601 5598 5596 5594 5591 5588 5585 5582 5576 5571 5571 5571
5743 5740 5738 5736 5734 5733 5731 5729 5727 5726 5724 5722 5720 5718 5716 5715 5714 5712 5710 5708 5706 5704 5702 5699 5696 5694 5691 5688 5684 5681 5678 5674 5671 5667 5664 5661 5658 5655 5652 5650 5647 5645 5642 5639 5635 5632 5630 5627 5624 5622 5619 5617 5614 5613 5611 5609 5608 5604 5600 5596 5596 5596 5594 5592 5589 5587 5585 5582 5579 5577 5571 5565 5563 5565
5737 5735 5733 5731 5729 5728 5726 5725 5723 5721 5719 5717 5716 5715 5713 5712 5710 5709 5707 5705 5703 5701 5699 5696 5693 5691 5688 5685 5682 5679 5676 5672 5668 5665 5662 5658 5655 5652 5650 5647 5645 5642 5639 5636 5632 5629 5626 5623 5620 5617 5614 5611 5609 5606 5605 5603 5601 5599 5596 5592 5589 5587 5586 5583 5581 5578 5577 5574 5572 5570 5565 5560 5559 5560
5732 5731 5729 5727 5725 5724 5722 5721 5718 5716 5715 5714 5712 5711 5709 5708 5707 5705 5704 5702 5700 5698 5696 5693 5691 5688 5685 5683 5680 5676 5673 5670 5666 5663 5660 5656 5653 5650 5648 5645 5642 5640 5637 5633 5630 5627 5623 5619 5616 5612 5609 5606 5604 5601 5599 5598 5596 5595 5593 5590 5586 5582 5579 5577 5574 5570 5567 5565 5564 5562 5559 5556 5555 5556
5728 5726 5725 5723 5721 5720 5718 5716 5714 5713 5711 5710 5709 5707 5706 5705 5703 5702 5701 5699 5697 5695 5693 5690 5688 5685 5683 5680 5677 5674 5671 5668 5665 5661 5658 5655 5652 5649 5646 5643 5640 5638 5634 5631 5628 5624 5620 5616 5613 5609 5605 5602 5599 5597 5595 5594 5592 5591 5590 5588 5585 5581 5578 5574 5571 5566 5561 5559 5558 5556 5554 5552 5552 5553
5723 5722 5720 5718 5717 5715 5714 5712 5710 5709 5708 5707 5706 5704 5703 5702 5701 5699 5698 5696 5694 5692 5690 5688 5685 5683 5680 5678 5675 5672 5669 5666 5663 5659 5656 5653 5650 5647 5644 5641 5639 5636 5632 5629 5625 5621 5618 5613 5610 5606 5603 5599 5596 5594 5592 5590 5589 5588 5587 5585 5583 5581 5577 5574 5569 5564 5558 5555 5553 5552 5551 5550 5550 5550
5718 5717 5715 5714 5713 5711 5709 5708 5706 5705 5705 5704 5702 5701 5700 5699 5698 5697 5695 5694 5692 5690 5688 5685 5683 5680 5678 5675 5673 5670 5667 5664 5661 5658 5655 5652 5649 5646 5643 5640 5637 5634 5630 5627 5623 5619 5615 5611 5607 5604 5600 5597 5594 5591 5589 5587 5586 5585 5584 5582 5580 5579 5576 5573 5569 5564 5559 5554 5551 5549 5548 5548 5548 5548
5714 5713 5711 5710 5708 5707 5705 5704 5702 5702 5701 5700 5699 5698 5697 5696 5695 5694 5692 5691 5689 5687 5685 5683 5680 5678 5676 5673 5671 5668 5665 5663 5660 5657 5654 5650 5647 5644 5641 5638 5635 5632 5629 5625 5622 5618 5614 5610 5606 5602 5598 5595 5592 5589 5587 5585 5584 5583 5581 5579 5577 5575 5573 5570 5567 5563 5558 5553 5550 5548 5546 5546 5546 5546